Time,TemperatureF,DewpointF,PressureIn,WindDirection,WindDirectionDegrees,WindSpeedMPH,WindSpeedGustMPH,Humidity,HourlyPrecipIn,Conditions,Clouds,dailyrainin,SoftwareType,DateUTC
2013-06-06 00:00:00,73.7,69.2,30.03,NNE,22,7.0,15.0,86,0.00,,,0.00,Wunderground v.1.15,2013-06-06 04:00:00,
2013-06-06 00:05:00,73.7,69.2,30.03,ESE,121,7.0,15.0,86,0.00,,,0.00,Wunderground v.1.15,2013-06-06 04:05:00,
2013-06-06 00:10:00,73.7,69.2,30.02,East,86,8.0,8.0,86,0.00,,,0.00,Wunderground v.1.15,2013-06-06 04:10:00,
2013-06-06 00:15:00,73.7,69.2,30.02,East,81,8.0,9.0,86,0.00,,,0.00,Wunderground v.1.15,2013-06-06 04:15:00,
2013-06-06 00:20:00,73.7,69.2,30.02,ESE,114,8.0,8.0,86,0.00,,,0.00,Wunderground v.1.15,2013-06-06 04:20:00,
2013-06-06 00:25:00,73.7,69.2,30.02,ENE,73,8.0,15.0,86,0.00,,,0.00,Wunderground v.1.15,2013-06-06 04:25:00,
2013-06-06 00:30:00,73.7,69.2,30.02,ESE,117,8.0,8.0,86,0.00,,,0.00,Wunderground v.1.15,2013-06-06 04:30:00,
2013-06-06 00:35:00,73.7,69.2,30.02,East,84,8.0,10.0,86,0.00,,,0.00,Wunderground v.1.15,2013-06-06 04:35:00,
2013-06-06 00:40:00,73.7,69.2,30.01,ENE,77,8.0,15.0,86,0.00,,,0.00,Wunderground v.1.15,2013-06-06 04:40:00,
2013-06-06 00:45:00,73.7,69.2,30.01,ENE,73,8.0,15.0,86,0.00,,,0.00,Wunderground v.1.15,2013-06-06 04:45:00,
2013-06-06 00:50:00,73.7,69.6,30.01,ENE,70,8.0,15.0,87,0.00,,,0.00,Wunderground v.1.15,2013-06-06 04:50:00,
2013-06-06 00:55:00,73.6,69.5,30.01,ENE,75,8.0,15.0,87,0.00,,,0.00,Wunderground v.1.15,2013-06-06 04:55:00,
2013-06-06 01:05:00,73.6,69.5,30.01,ENE,68,9.0,15.0,87,0.00,,,0.00,Wunderground v.1.15,2013-06-06 05:05:00,
2013-06-06 01:10:00,73.6,69.5,30.01,ENE,63,8.0,8.0,87,0.00,,,0.00,Wunderground v.1.15,2013-06-06 05:10:00,
2013-06-06 01:15:00,73.6,69.5,30.01,ESE,102,8.0,15.0,87,0.00,,,0.00,Wunderground v.1.15,2013-06-06 05:15:00,
2013-06-06 01:20:00,73.7,69.6,30.00,East,84,9.0,15.0,87,0.00,,,0.00,Wunderground v.1.15,2013-06-06 05:20:00,
2013-06-06 01:25:00,73.7,69.6,30.00,ENE,72,8.0,15.0,87,0.00,,,0.00,Wunderground v.1.15,2013-06-06 05:25:00,
2013-06-06 01:30:00,73.8,69.7,30.00,ESE,107,8.0,15.0,87,0.00,,,0.00,Wunderground v.1.15,2013-06-06 05:30:00,
2013-06-06 01:35:00,73.9,69.8,30.00,ENE,57,8.0,15.0,87,0.00,,,0.00,Wunderground v.1.15,2013-06-06 05:35:00,
2013-06-06 01:40:00,73.9,69.8,30.00,ENE,61,8.0,8.0,87,0.00,,,0.00,Wunderground v.1.15,2013-06-06 05:40:00,
2013-06-06 01:45:00,73.9,70.1,30.00,NE,50,7.0,15.0,88,0.00,,,0.00,Wunderground v.1.15,2013-06-06 05:45:00,
2013-06-06 01:50:00,74.0,70.2,30.00,ESE,117,7.0,15.0,88,0.00,,,0.00,Wunderground v.1.15,2013-06-06 05:50:00,
2013-06-06 01:55:00,74.1,69.6,30.00,ESE,113,8.0,15.0,86,0.00,,,0.00,Wunderground v.1.15,2013-06-06 05:55:00,
2013-06-06 02:00:00,74.5,69.7,30.00,SE,133,9.0,13.0,85,0.00,,,0.00,Wunderground v.1.15,2013-06-06 06:00:00,
2013-06-06 02:10:00,74.8,69.6,30.00,ESE,114,8.0,8.0,84,0.00,,,0.00,Wunderground v.1.15,2013-06-06 06:10:00,
2013-06-06 02:15:00,74.9,69.7,29.99,ESE,111,8.0,9.0,84,0.00,,,0.00,Wunderground v.1.15,2013-06-06 06:15:00,
2013-06-06 02:20:00,74.9,69.7,29.99,SSE,152,8.0,13.0,84,0.00,,,0.00,Wunderground v.1.15,2013-06-06 06:20:00,
2013-06-06 02:25:00,74.9,69.7,29.99,SE,138,9.0,13.0,84,0.00,,,0.00,Wunderground v.1.15,2013-06-06 06:25:00,
2013-06-06 02:30:00,74.9,69.7,29.99,SE,134,9.0,9.0,84,0.00,,,0.00,Wunderground v.1.15,2013-06-06 06:30:00,
2013-06-06 02:35:00,75.0,69.8,29.98,SE,133,9.0,13.0,84,0.00,,,0.00,Wunderground v.1.15,2013-06-06 06:35:00,
2013-06-06 02:40:00,75.1,69.9,29.98,SE,135,10.0,13.0,84,0.00,,,0.00,Wunderground v.1.15,2013-06-06 06:40:00,
2013-06-06 02:45:00,75.1,69.9,29.98,ESE,117,11.0,13.0,84,0.00,,,0.00,Wunderground v.1.15,2013-06-06 06:45:00,
2013-06-06 02:50:00,75.0,69.8,29.98,ESE,103,10.0,13.0,84,0.00,,,0.00,Wunderground v.1.15,2013-06-06 06:50:00,
2013-06-06 02:55:00,75.0,69.8,29.98,ESE,114,10.0,13.0,84,0.00,,,0.00,Wunderground v.1.15,2013-06-06 06:55:00,
2013-06-06 03:00:00,75.1,69.9,29.98,South,173,11.0,16.0,84,0.00,,,0.00,Wunderground v.1.15,2013-06-06 07:00:00,
2013-06-06 03:05:00,75.1,69.9,29.98,SSE,167,11.0,16.0,84,0.00,,,0.00,Wunderground v.1.15,2013-06-06 07:05:00,
2013-06-06 03:10:00,75.1,69.6,29.98,SE,129,12.0,16.0,83,0.00,,,0.00,Wunderground v.1.15,2013-06-06 07:10:00,
2013-06-06 03:15:00,75.1,69.6,29.98,SE,138,12.0,16.0,83,0.00,,,0.00,Wunderground v.1.15,2013-06-06 07:15:00,
2013-06-06 03:20:00,75.1,69.9,29.97,SE,141,11.0,16.0,84,0.00,,,0.00,Wunderground v.1.15,2013-06-06 07:20:00,
2013-06-06 03:25:00,75.1,69.6,29.97,SE,143,11.0,16.0,83,0.00,,,0.00,Wunderground v.1.15,2013-06-06 07:25:00,
2013-06-06 03:30:00,75.1,69.9,29.97,SE,129,10.0,10.0,84,0.00,,,0.00,Wunderground v.1.15,2013-06-06 07:30:00,
2013-06-06 03:35:00,75.0,69.5,29.96,East,98,9.0,12.0,83,0.00,,,0.00,Wunderground v.1.15,2013-06-06 07:35:00,
2013-06-06 03:40:00,75.0,69.8,29.96,ESE,105,10.0,16.0,84,0.00,,,0.00,Wunderground v.1.15,2013-06-06 07:40:00,
2013-06-06 03:45:00,75.0,69.8,29.96,SE,124,9.0,16.0,84,0.00,,,0.00,Wunderground v.1.15,2013-06-06 07:45:00,
2013-06-06 03:50:00,74.9,69.7,29.96,ESE,117,10.0,10.0,84,0.00,,,0.00,Wunderground v.1.15,2013-06-06 07:50:00,
2013-06-06 03:55:00,75.0,69.8,29.96,East,90,9.0,16.0,84,0.00,,,0.00,Wunderground v.1.15,2013-06-06 07:55:00,
2013-06-06 04:00:00,75.0,69.5,29.96,SE,136,10.0,18.0,83,0.00,,,0.00,Wunderground v.1.15,2013-06-06 08:00:00,
2013-06-06 04:05:00,75.0,69.8,29.96,East,96,11.0,18.0,84,0.00,,,0.00,Wunderground v.1.15,2013-06-06 08:05:00,
2013-06-06 04:10:00,75.1,69.9,29.96,ESE,120,12.0,12.0,84,0.00,,,0.00,Wunderground v.1.15,2013-06-06 08:10:00,
2013-06-06 04:15:00,75.1,69.9,29.96,ESE,104,12.0,18.0,84,0.00,,,0.00,Wunderground v.1.15,2013-06-06 08:15:00,
2013-06-06 04:20:00,75.0,69.5,29.95,ESE,117,11.0,18.0,83,0.00,,,0.00,Wunderground v.1.15,2013-06-06 08:20:00,
2013-06-06 04:25:00,75.1,69.9,29.95,SE,136,11.0,18.0,84,0.00,,,0.00,Wunderground v.1.15,2013-06-06 08:25:00,
2013-06-06 04:30:00,75.0,69.8,29.95,ESE,108,11.0,11.0,84,0.00,,,0.00,Wunderground v.1.15,2013-06-06 08:30:00,
2013-06-06 04:35:00,75.0,69.8,29.94,SE,124,11.0,18.0,84,0.00,,,0.00,Wunderground v.1.15,2013-06-06 08:35:00,
2013-06-06 04:40:00,75.0,69.8,29.94,SSE,154,10.0,18.0,84,0.00,,,0.00,Wunderground v.1.15,2013-06-06 08:40:00,
2013-06-06 04:45:00,75.0,69.8,29.94,SE,145,11.0,18.0,84,0.00,,,0.00,Wunderground v.1.15,2013-06-06 08:45:00,
2013-06-06 04:50:00,74.9,69.7,29.94,East,98,11.0,18.0,84,0.00,,,0.00,Wunderground v.1.15,2013-06-06 08:50:00,
2013-06-06 04:55:00,74.9,69.7,29.93,SSE,156,10.0,18.0,84,0.00,,,0.00,Wunderground v.1.15,2013-06-06 08:55:00,
2013-06-06 05:00:00,74.9,69.7,29.93,ENE,70,10.0,10.0,84,0.00,,,0.00,Wunderground v.1.15,2013-06-06 09:00:00,
2013-06-06 05:05:00,75.0,69.8,29.94,SE,129,11.0,18.0,84,0.00,,,0.00,Wunderground v.1.15,2013-06-06 09:05:00,
2013-06-06 05:15:00,74.9,70.1,29.94,SSE,156,11.0,18.0,85,0.00,,,0.00,Wunderground v.1.15,2013-06-06 09:15:00,
2013-06-06 05:20:00,74.9,70.1,29.93,SE,129,10.0,18.0,85,0.00,,,0.00,Wunderground v.1.15,2013-06-06 09:20:00,
2013-06-06 05:25:00,74.9,69.7,29.93,SE,127,11.0,18.0,84,0.00,,,0.00,Wunderground v.1.15,2013-06-06 09:25:00,
2013-06-06 05:30:00,74.9,69.7,29.93,SE,132,12.0,12.0,84,0.00,,,0.00,Wunderground v.1.15,2013-06-06 09:30:00,
2013-06-06 05:35:00,74.9,69.7,29.93,SE,129,11.0,16.0,84,0.00,,,0.00,Wunderground v.1.15,2013-06-06 09:35:00,
2013-06-06 05:40:00,75.0,69.8,29.93,SE,135,11.0,18.0,84,0.00,,,0.00,Wunderground v.1.15,2013-06-06 09:40:00,
2013-06-06 05:45:00,75.0,69.8,29.93,SE,129,11.0,18.0,84,0.00,,,0.00,Wunderground v.1.15,2013-06-06 09:45:00,
2013-06-06 05:50:00,75.0,69.8,29.93,SSE,156,11.0,18.0,84,0.00,,,0.00,Wunderground v.1.15,2013-06-06 09:50:00,
2013-06-06 05:55:00,75.0,70.2,29.94,SE,128,11.0,18.0,85,0.00,,,0.00,Wunderground v.1.15,2013-06-06 09:55:00,
2013-06-06 06:00:00,74.9,69.7,29.93,SSE,148,11.0,11.0,84,0.00,,,0.00,Wunderground v.1.15,2013-06-06 10:00:00,
2013-06-06 06:10:00,75.1,69.9,29.93,SSE,156,10.0,10.0,84,0.00,,,0.00,Wunderground v.1.15,2013-06-06 10:10:00,
2013-06-06 06:15:00,75.0,69.8,29.93,SSE,148,9.0,11.0,84,0.00,,,0.00,Wunderground v.1.15,2013-06-06 10:15:00,
2013-06-06 06:20:00,75.1,69.9,29.93,SSE,167,10.0,18.0,84,0.00,,,0.00,Wunderground v.1.15,2013-06-06 10:20:00,
2013-06-06 06:30:00,75.2,70.4,29.93,SE,124,12.0,18.0,85,0.00,,,0.00,Wunderground v.1.15,2013-06-06 10:30:00,
2013-06-06 06:35:00,75.2,70.0,29.93,ESE,115,11.0,18.0,84,0.00,,,0.00,Wunderground v.1.15,2013-06-06 10:35:00,
2013-06-06 06:40:00,75.2,70.0,29.93,SE,134,11.0,18.0,84,0.00,,,0.00,Wunderground v.1.15,2013-06-06 10:40:00,
2013-06-06 06:45:00,75.3,70.1,29.93,ESE,108,12.0,18.0,84,0.00,,,0.00,Wunderground v.1.15,2013-06-06 10:45:00,
2013-06-06 06:50:00,75.3,70.1,29.93,SE,145,11.0,18.0,84,0.00,,,0.00,Wunderground v.1.15,2013-06-06 10:50:00,
2013-06-06 06:55:00,75.4,70.6,29.93,SE,135,11.0,18.0,85,0.00,,,0.00,Wunderground v.1.15,2013-06-06 10:55:00,
2013-06-06 07:00:00,75.4,70.2,29.93,SE,135,10.0,10.0,84,0.00,,,0.00,Wunderground v.1.15,2013-06-06 11:00:00,
2013-06-06 07:05:00,75.4,70.2,29.93,SE,127,10.0,12.0,84,0.00,,,0.00,Wunderground v.1.15,2013-06-06 11:05:00,
2013-06-06 07:10:00,75.5,70.7,29.93,East,84,9.0,18.0,85,0.00,,,0.00,Wunderground v.1.15,2013-06-06 11:10:00,
2013-06-06 07:15:00,75.5,70.7,29.93,SE,124,9.0,18.0,85,0.00,,,0.00,Wunderground v.1.15,2013-06-06 11:15:00,
2013-06-06 07:20:00,75.5,70.7,29.93,SE,125,9.0,9.0,85,0.00,,,0.00,Wunderground v.1.15,2013-06-06 11:20:00,
2013-06-06 07:25:00,75.5,70.7,29.93,SE,138,10.0,10.0,85,0.00,,,0.00,Wunderground v.1.15,2013-06-06 11:25:00,
2013-06-06 07:30:00,75.5,70.7,29.92,SE,145,10.0,18.0,85,0.00,,,0.00,Wunderground v.1.15,2013-06-06 11:30:00,
2013-06-06 07:35:00,75.5,70.7,29.92,SE,124,10.0,18.0,85,0.00,,,0.00,Wunderground v.1.15,2013-06-06 11:35:00,
2013-06-06 07:40:00,75.6,70.8,29.93,South,170,10.0,18.0,85,0.00,,,0.00,Wunderground v.1.15,2013-06-06 11:40:00,
2013-06-06 07:45:00,75.6,70.8,29.93,SE,139,10.0,18.0,85,0.00,,,0.00,Wunderground v.1.15,2013-06-06 11:45:00,
2013-06-06 07:50:00,75.7,70.9,29.93,SE,145,10.0,18.0,85,0.00,,,0.00,Wunderground v.1.15,2013-06-06 11:50:00,
2013-06-06 07:55:00,75.7,70.9,29.93,ESE,111,10.0,18.0,85,0.00,,,0.00,Wunderground v.1.15,2013-06-06 11:55:00,
2013-06-06 08:00:00,75.7,70.9,29.92,SE,138,10.0,18.0,85,0.00,,,0.00,Wunderground v.1.15,2013-06-06 12:00:00,
2013-06-06 08:10:00,75.8,71.0,29.93,NW,304,9.0,9.0,85,0.00,,,0.00,Wunderground v.1.15,2013-06-06 12:10:00,
2013-06-06 08:15:00,75.8,71.0,29.93,South,169,9.0,10.0,85,0.00,,,0.00,Wunderground v.1.15,2013-06-06 12:15:00,
2013-06-06 08:20:00,75.9,71.1,29.93,SE,143,9.0,18.0,85,0.00,,,0.00,Wunderground v.1.15,2013-06-06 12:20:00,
2013-06-06 08:25:00,75.9,71.1,29.93,East,79,9.0,18.0,85,0.00,,,0.00,Wunderground v.1.15,2013-06-06 12:25:00,
2013-06-06 08:30:00,76.0,71.2,29.93,SE,133,9.0,9.0,85,0.00,,,0.00,Wunderground v.1.15,2013-06-06 12:30:00,
2013-06-06 08:35:00,76.1,71.3,29.93,SE,124,8.0,11.0,85,0.00,,,0.00,Wunderground v.1.15,2013-06-06 12:35:00,
2013-06-06 08:40:00,76.2,71.4,29.93,SSE,160,8.0,18.0,85,0.00,,,0.00,Wunderground v.1.15,2013-06-06 12:40:00,
2013-06-06 08:45:00,76.3,71.5,29.93,SSE,160,8.0,18.0,85,0.00,,,0.00,Wunderground v.1.15,2013-06-06 12:45:00,
2013-06-06 08:50:00,76.5,71.7,29.93,East,98,8.0,8.0,85,0.00,,,0.00,Wunderground v.1.15,2013-06-06 12:50:00,
2013-06-06 08:55:00,76.7,71.8,29.93,SSE,153,7.0,18.0,85,0.00,,,0.00,Wunderground v.1.15,2013-06-06 12:55:00,
2013-06-06 09:00:00,76.8,71.9,29.93,SSE,150,7.0,7.0,85,0.00,,,0.00,Wunderground v.1.15,2013-06-06 13:00:00,
2013-06-06 09:05:00,77.1,72.2,29.93,SSE,158,7.0,17.0,85,0.00,,,0.00,Wunderground v.1.15,2013-06-06 13:05:00,
2013-06-06 09:10:00,77.3,72.1,29.93,SE,131,7.0,7.0,84,0.00,,,0.00,Wunderground v.1.15,2013-06-06 13:10:00,
2013-06-06 09:15:00,77.7,72.5,29.93,SSE,160,7.0,17.0,84,0.00,,,0.00,Wunderground v.1.15,2013-06-06 13:15:00,
2013-06-06 09:20:00,77.8,72.2,29.93,East,95,7.0,17.0,83,0.00,,,0.00,Wunderground v.1.15,2013-06-06 13:20:00,
2013-06-06 09:25:00,77.7,72.1,29.93,ENE,69,7.0,17.0,83,0.00,,,0.00,Wunderground v.1.15,2013-06-06 13:25:00,
2013-06-06 09:30:00,77.5,71.9,29.93,ESE,117,7.0,7.0,83,0.00,,,0.00,Wunderground v.1.15,2013-06-06 13:30:00,
2013-06-06 09:35:00,77.5,72.3,29.93,SSE,162,7.0,17.0,84,0.00,,,0.00,Wunderground v.1.15,2013-06-06 13:35:00,
2013-06-06 09:40:00,77.7,72.5,29.93,SSW,211,6.0,6.0,84,0.00,,,0.00,Wunderground v.1.15,2013-06-06 13:40:00,
2013-06-06 09:45:00,77.8,72.2,29.93,ESE,114,7.0,10.0,83,0.00,,,0.00,Wunderground v.1.15,2013-06-06 13:45:00,
2013-06-06 09:50:00,77.7,72.1,29.93,SE,146,7.0,7.0,83,0.00,,,0.00,Wunderground v.1.15,2013-06-06 13:50:00,
2013-06-06 09:55:00,77.7,72.5,29.93,East,88,7.0,17.0,84,0.00,,,0.00,Wunderground v.1.15,2013-06-06 13:55:00,
2013-06-06 10:00:00,77.7,72.5,29.93,SSE,163,7.0,13.0,84,0.00,,,0.00,Wunderground v.1.15,2013-06-06 14:00:00,
2013-06-06 10:05:00,77.6,72.4,29.93,SE,129,7.0,13.0,84,0.00,,,0.00,Wunderground v.1.15,2013-06-06 14:05:00,
2013-06-06 10:10:00,77.6,72.4,29.93,South,173,7.0,7.0,84,0.00,,,0.00,Wunderground v.1.15,2013-06-06 14:10:00,
2013-06-06 10:15:00,77.6,72.4,29.93,South,187,7.0,13.0,84,0.00,,,0.00,Wunderground v.1.15,2013-06-06 14:15:00,
2013-06-06 10:20:00,77.7,72.5,29.93,South,187,7.0,13.0,84,0.00,,,0.00,Wunderground v.1.15,2013-06-06 14:20:00,
2013-06-06 10:25:00,77.7,72.5,29.93,SSE,148,7.0,13.0,84,0.00,,,0.00,Wunderground v.1.15,2013-06-06 14:25:00,
2013-06-06 10:30:00,77.8,72.2,29.93,South,191,6.0,6.0,83,0.00,,,0.00,Wunderground v.1.15,2013-06-06 14:30:00,
2013-06-06 10:35:00,77.7,72.1,29.94,SE,141,7.0,9.0,83,0.00,,,0.00,Wunderground v.1.15,2013-06-06 14:35:00,
2013-06-06 10:40:00,77.7,72.5,29.94,SE,126,7.0,7.0,84,0.00,,,0.00,Wunderground v.1.15,2013-06-06 14:40:00,
2013-06-06 10:45:00,77.6,72.4,29.94,SE,131,6.0,8.0,84,0.00,,,0.00,Wunderground v.1.15,2013-06-06 14:45:00,
2013-06-06 10:50:00,77.5,72.3,29.94,South,172,6.0,6.0,84,0.00,,,0.00,Wunderground v.1.15,2013-06-06 14:50:00,
2013-06-06 10:55:00,77.5,72.3,29.94,SSE,163,6.0,7.0,84,0.00,,,0.00,Wunderground v.1.15,2013-06-06 14:55:00,
2013-06-06 11:00:00,77.6,72.4,29.94,South,174,5.0,12.0,84,0.00,,,0.00,Wunderground v.1.15,2013-06-06 15:00:00,
2013-06-06 11:05:00,77.5,72.3,29.94,SE,136,6.0,12.0,84,0.00,,,0.00,Wunderground v.1.15,2013-06-06 15:05:00,
2013-06-06 11:10:00,77.5,72.3,29.94,SSE,160,6.0,6.0,84,0.00,,,0.00,Wunderground v.1.15,2013-06-06 15:10:00,
2013-06-06 11:15:00,77.5,72.3,29.94,SSE,150,6.0,7.0,84,0.00,,,0.00,Wunderground v.1.15,2013-06-06 15:15:00,
2013-06-06 11:20:00,77.6,72.4,29.93,South,180,6.0,12.0,84,0.00,,,0.00,Wunderground v.1.15,2013-06-06 15:20:00,
2013-06-06 11:25:00,77.6,72.4,29.93,SE,142,6.0,12.0,84,0.00,,,0.00,Wunderground v.1.15,2013-06-06 15:25:00,
2013-06-06 11:30:00,77.5,72.3,29.93,South,191,7.0,7.0,84,0.00,,,0.00,Wunderground v.1.15,2013-06-06 15:30:00,
2013-06-06 11:35:00,77.3,72.4,29.93,ESE,121,7.0,8.0,85,0.00,,,0.00,Wunderground v.1.15,2013-06-06 15:35:00,
2013-06-06 11:40:00,77.2,72.3,29.93,SE,145,6.0,6.0,85,0.00,,,0.00,Wunderground v.1.15,2013-06-06 15:40:00,
2013-06-06 11:45:00,77.1,72.2,29.93,SE,143,6.0,12.0,85,0.00,,,0.00,Wunderground v.1.15,2013-06-06 15:45:00,
2013-06-06 11:50:00,77.2,72.7,29.93,SE,143,6.0,6.0,86,0.00,,,0.00,Wunderground v.1.15,2013-06-06 15:50:00,
2013-06-06 11:55:00,77.3,72.8,29.94,SSE,153,5.0,12.0,86,0.00,,,0.00,Wunderground v.1.15,2013-06-06 15:55:00,
2013-06-06 12:00:00,77.2,72.7,29.93,South,174,6.0,13.0,86,0.00,,,0.00,Wunderground v.1.15,2013-06-06 16:00:00,
2013-06-06 12:05:00,77.2,72.7,29.93,SE,129,6.0,13.0,86,0.00,,,0.00,Wunderground v.1.15,2013-06-06 16:05:00,
2013-06-06 12:10:00,77.3,72.8,29.93,SE,129,6.0,6.0,86,0.00,,,0.00,Wunderground v.1.15,2013-06-06 16:10:00,
2013-06-06 12:15:00,77.4,72.9,29.93,SSE,148,6.0,9.0,86,0.00,,,0.00,Wunderground v.1.15,2013-06-06 16:15:00,
2013-06-06 12:20:00,77.4,72.9,29.93,SSE,148,6.0,13.0,86,0.00,,,0.00,Wunderground v.1.15,2013-06-06 16:20:00,
2013-06-06 12:25:00,77.4,72.9,29.93,SSE,160,6.0,13.0,86,0.00,,,0.00,Wunderground v.1.15,2013-06-06 16:25:00,
2013-06-06 12:30:00,77.2,72.7,29.93,ESE,120,6.0,6.0,86,0.00,,,0.00,Wunderground v.1.15,2013-06-06 16:30:00,
2013-06-06 12:35:00,77.1,72.6,29.93,ESE,121,5.0,13.0,86,0.00,,,0.00,Wunderground v.1.15,2013-06-06 16:35:00,
2013-06-06 12:40:00,77.1,72.6,29.93,ESE,107,6.0,6.0,86,0.00,,,0.00,Wunderground v.1.15,2013-06-06 16:40:00,
2013-06-06 12:45:00,77.1,72.6,29.93,SSW,210,6.0,7.0,86,0.00,,,0.00,Wunderground v.1.15,2013-06-06 16:45:00,
2013-06-06 12:50:00,77.0,72.8,29.92,SSE,165,5.0,13.0,87,0.00,,,0.00,Wunderground v.1.15,2013-06-06 16:50:00,
2013-06-06 12:55:00,76.9,72.7,29.92,SSE,148,5.0,13.0,87,0.00,,,0.00,Wunderground v.1.15,2013-06-06 16:55:00,
2013-06-06 13:00:00,76.9,72.7,29.92,SSE,163,5.0,11.0,87,0.00,,,0.00,Wunderground v.1.15,2013-06-06 17:00:00,
2013-06-06 13:05:00,76.8,72.6,29.92,South,176,5.0,11.0,87,0.00,,,0.00,Wunderground v.1.15,2013-06-06 17:05:00,
2013-06-06 13:10:00,76.8,72.6,29.92,SSE,167,5.0,11.0,87,0.00,,,0.00,Wunderground v.1.15,2013-06-06 17:10:00,
2013-06-06 13:15:00,76.5,72.3,29.92,SSW,210,6.0,11.0,87,0.00,,,0.01,Wunderground v.1.15,2013-06-06 17:15:00,
2013-06-06 13:20:00,76.1,71.9,29.91,SSE,159,8.0,11.0,87,0.00,,,0.01,Wunderground v.1.15,2013-06-06 17:20:00,
2013-06-06 13:25:00,75.8,72.0,29.91,South,184,10.0,11.0,88,0.05,,,0.02,Wunderground v.1.15,2013-06-06 17:25:00,
2013-06-06 13:30:00,75.4,71.3,29.91,South,191,10.0,11.0,87,0.05,,,0.02,Wunderground v.1.15,2013-06-06 17:30:00,
2013-06-06 13:35:00,75.5,71.4,29.91,South,179,10.0,11.0,87,0.05,,,0.02,Wunderground v.1.15,2013-06-06 17:35:00,
2013-06-06 13:40:00,75.5,71.7,29.91,SSW,210,9.0,11.0,88,0.05,,,0.03,Wunderground v.1.15,2013-06-06 17:40:00,
2013-06-06 13:45:00,75.6,71.8,29.91,South,190,9.0,11.0,88,0.05,,,0.03,Wunderground v.1.15,2013-06-06 17:45:00,
2013-06-06 13:50:00,75.5,71.7,29.91,South,190,9.0,9.0,88,0.05,,,0.04,Wunderground v.1.15,2013-06-06 17:50:00,
2013-06-06 13:55:00,75.3,71.5,29.91,NNE,27,8.0,11.0,88,0.14,,,0.05,Wunderground v.1.15,2013-06-06 17:55:00,
2013-06-06 14:00:00,74.3,70.5,29.91,WNW,294,6.0,6.0,88,0.09,,,0.06,Wunderground v.1.15,2013-06-06 18:00:00,
2013-06-06 14:05:00,73.6,70.2,29.91,WNW,302,6.0,15.0,89,2.65,,,0.16,Wunderground v.1.15,2013-06-06 18:05:00,
2013-06-06 14:10:00,72.9,69.8,29.90,NNW,342,5.0,5.0,90,0.68,,,0.25,Wunderground v.1.15,2013-06-06 18:10:00,
2013-06-06 14:15:00,72.5,69.7,29.91,South,171,6.0,9.0,91,1.10,,,0.38,Wunderground v.1.15,2013-06-06 18:15:00,
2013-06-06 14:25:00,72.2,69.7,29.90,South,174,7.0,15.0,92,0.17,,,0.42,Wunderground v.1.15,2013-06-06 18:25:00,
2013-06-06 14:30:00,72.2,69.7,29.90,SE,142,4.0,15.0,92,0.27,,,0.44,Wunderground v.1.15,2013-06-06 18:30:00,
2013-06-06 14:35:00,72.3,69.8,29.90,SSE,164,3.0,15.0,92,0.11,,,0.44,Wunderground v.1.15,2013-06-06 18:35:00,
2013-06-06 14:40:00,72.5,70.0,29.90,South,190,4.0,15.0,92,0.11,,,0.45,Wunderground v.1.15,2013-06-06 18:40:00,
2013-06-06 14:45:00,72.7,70.2,29.90,SE,141,4.0,15.0,92,0.06,,,0.45,Wunderground v.1.15,2013-06-06 18:45:00,
2013-06-06 14:50:00,72.8,70.3,29.90,SSE,158,4.0,4.0,92,0.04,,,0.45,Wunderground v.1.15,2013-06-06 18:50:00,
2013-06-06 14:55:00,72.7,70.2,29.90,SE,139,5.0,5.0,92,0.00,,,0.45,Wunderground v.1.15,2013-06-06 18:55:00,
2013-06-06 15:00:00,72.9,70.4,29.89,SE,124,4.0,13.0,92,0.00,,,0.45,Wunderground v.1.15,2013-06-06 19:00:00,
2013-06-06 15:05:00,72.9,70.4,29.89,SE,132,4.0,13.0,92,0.00,,,0.45,Wunderground v.1.15,2013-06-06 19:05:00,
2013-06-06 15:10:00,72.9,70.4,29.89,SSE,154,5.0,13.0,92,0.00,,,0.45,Wunderground v.1.15,2013-06-06 19:10:00,
2013-06-06 15:15:00,73.1,70.6,29.89,SE,140,5.0,13.0,92,0.00,,,0.45,Wunderground v.1.15,2013-06-06 19:15:00,
2013-06-06 15:20:00,73.1,70.6,29.89,SSE,150,5.0,13.0,92,0.00,,,0.45,Wunderground v.1.15,2013-06-06 19:20:00,
2013-06-06 15:25:00,73.1,70.6,29.88,ESE,120,6.0,13.0,92,0.00,,,0.45,Wunderground v.1.15,2013-06-06 19:25:00,
2013-06-06 15:30:00,73.0,70.5,29.88,SSE,148,6.0,6.0,92,0.00,,,0.45,Wunderground v.1.15,2013-06-06 19:30:00,
2013-06-06 15:35:00,73.0,70.5,29.88,SE,136,6.0,13.0,92,0.00,,,0.45,Wunderground v.1.15,2013-06-06 19:35:00,
2013-06-06 15:40:00,73.1,70.6,29.88,SSE,150,5.0,5.0,92,0.00,,,0.45,Wunderground v.1.15,2013-06-06 19:40:00,
2013-06-06 15:45:00,73.3,70.8,29.88,SE,143,5.0,6.0,92,0.00,,,0.45,Wunderground v.1.15,2013-06-06 19:45:00,
2013-06-06 15:50:00,73.4,70.9,29.88,ESE,105,5.0,5.0,92,0.00,,,0.45,Wunderground v.1.15,2013-06-06 19:50:00,
2013-06-06 15:55:00,73.6,71.1,29.88,SSE,159,4.0,13.0,92,0.00,,,0.45,Wunderground v.1.15,2013-06-06 19:55:00,
2013-06-06 16:00:00,73.7,71.2,29.88,SE,143,4.0,10.0,92,0.00,,,0.45,Wunderground v.1.15,2013-06-06 20:00:00,
2013-06-06 16:10:00,73.2,70.7,29.87,SE,140,5.0,10.0,92,0.00,,,0.45,Wunderground v.1.15,2013-06-06 20:10:00,
2013-06-06 16:15:00,72.9,70.1,29.87,SE,124,5.0,10.0,91,0.00,,,0.45,Wunderground v.1.15,2013-06-06 20:15:00,
2013-06-06 16:20:00,72.9,70.4,29.87,ESE,115,5.0,5.0,92,0.00,,,0.45,Wunderground v.1.15,2013-06-06 20:20:00,
2013-06-06 16:25:00,72.8,70.3,29.87,SE,131,5.0,10.0,92,0.24,,,0.47,Wunderground v.1.15,2013-06-06 20:25:00,
2013-06-06 16:30:00,72.8,70.3,29.87,SE,140,5.0,10.0,92,0.08,,,0.47,Wunderground v.1.15,2013-06-06 20:30:00,
2013-06-06 16:35:00,73.0,70.5,29.87,SSE,153,5.0,10.0,92,0.05,,,0.48,Wunderground v.1.15,2013-06-06 20:35:00,
2013-06-06 16:40:00,73.0,70.5,29.87,SE,132,5.0,10.0,92,0.27,,,0.53,Wunderground v.1.15,2013-06-06 20:40:00,
2013-06-06 16:45:00,73.0,70.5,29.87,SE,129,5.0,10.0,92,0.09,,,0.53,Wunderground v.1.15,2013-06-06 20:45:00,
2013-06-06 16:50:00,73.1,70.6,29.87,SE,131,6.0,10.0,92,0.05,,,0.53,Wunderground v.1.15,2013-06-06 20:50:00,
2013-06-06 16:55:00,73.3,71.2,29.87,South,180,5.0,10.0,93,0.00,,,0.53,Wunderground v.1.15,2013-06-06 20:55:00,
2013-06-06 17:00:00,73.3,70.8,29.86,ESE,114,4.0,8.0,92,0.00,,,0.53,Wunderground v.1.15,2013-06-06 21:00:00,
2013-06-06 17:05:00,73.3,70.8,29.86,ESE,121,5.0,8.0,92,0.00,,,0.53,Wunderground v.1.15,2013-06-06 21:05:00,
2013-06-06 17:10:00,73.3,70.8,29.86,South,174,5.0,5.0,92,0.00,,,0.53,Wunderground v.1.15,2013-06-06 21:10:00,
2013-06-06 17:15:00,73.4,71.3,29.86,SSW,198,4.0,8.0,93,0.00,,,0.53,Wunderground v.1.15,2013-06-06 21:15:00,
2013-06-06 17:20:00,73.6,71.4,29.86,SSE,148,4.0,4.0,93,0.00,,,0.53,Wunderground v.1.15,2013-06-06 21:20:00,
2013-06-06 17:25:00,73.5,71.4,29.86,SSW,199,4.0,9.0,93,0.00,,,0.53,Wunderground v.1.15,2013-06-06 21:25:00,
2013-06-06 17:30:00,73.6,71.1,29.86,South,177,5.0,5.0,92,0.00,,,0.53,Wunderground v.1.15,2013-06-06 21:30:00,
2013-06-06 17:35:00,73.6,71.4,29.86,South,177,5.0,8.0,93,0.00,,,0.53,Wunderground v.1.15,2013-06-06 21:35:00,
2013-06-06 17:40:00,73.7,71.2,29.86,SSE,166,4.0,4.0,92,0.00,,,0.53,Wunderground v.1.15,2013-06-06 21:40:00,
2013-06-06 17:45:00,73.8,71.6,29.86,SW,217,4.0,8.0,93,0.00,,,0.53,Wunderground v.1.15,2013-06-06 21:45:00,
2013-06-06 17:50:00,73.8,71.3,29.86,South,181,5.0,8.0,92,0.00,,,0.53,Wunderground v.1.15,2013-06-06 21:50:00,
2013-06-06 17:55:00,73.9,71.7,29.86,SSW,212,6.0,8.0,93,0.00,,,0.53,Wunderground v.1.15,2013-06-06 21:55:00,
2013-06-06 18:00:00,74.0,71.8,29.86,SSW,200,6.0,6.0,93,0.00,,,0.53,Wunderground v.1.15,2013-06-06 22:00:00,
2013-06-06 18:10:00,74.4,72.2,29.85,WSW,240,3.0,3.0,93,0.00,,,0.53,Wunderground v.1.15,2013-06-06 22:10:00,
2013-06-06 18:15:00,74.5,72.3,29.86,ENE,68,1.0,10.0,93,0.00,,,0.53,Wunderground v.1.15,2013-06-06 22:15:00,
2013-06-06 18:20:00,74.6,72.4,29.85,ENE,61,1.0,10.0,93,0.00,,,0.53,Wunderground v.1.15,2013-06-06 22:20:00,
2013-06-06 18:25:00,74.6,72.4,29.85,NNW,346,1.0,10.0,93,0.00,,,0.53,Wunderground v.1.15,2013-06-06 22:25:00,
2013-06-06 18:30:00,74.5,72.0,29.85,NE,47,2.0,2.0,92,0.00,,,0.53,Wunderground v.1.15,2013-06-06 22:30:00,
2013-06-06 18:35:00,74.6,72.4,29.85,SSE,160,1.0,10.0,93,0.00,,,0.53,Wunderground v.1.15,2013-06-06 22:35:00,
2013-06-06 18:40:00,74.6,72.1,29.85,NE,48,2.0,2.0,92,0.00,,,0.53,Wunderground v.1.15,2013-06-06 22:40:00,
2013-06-06 18:45:00,74.6,72.1,29.85,NE,37,2.0,10.0,92,0.00,,,0.53,Wunderground v.1.15,2013-06-06 22:45:00,
2013-06-06 18:50:00,74.7,72.5,29.85,NE,53,1.0,1.0,93,0.00,,,0.53,Wunderground v.1.15,2013-06-06 22:50:00,
2013-06-06 18:55:00,74.6,72.4,29.85,NNW,345,1.0,10.0,93,0.00,,,0.53,Wunderground v.1.15,2013-06-06 22:55:00,
2013-06-06 19:00:00,74.6,72.4,29.85,South,184,1.0,1.0,93,0.00,,,0.53,Wunderground v.1.15,2013-06-06 23:00:00,
2013-06-06 19:05:00,74.6,72.4,29.85,ESE,103,1.0,6.0,93,0.00,,,0.53,Wunderground v.1.15,2013-06-06 23:05:00,
2013-06-06 19:10:00,74.6,72.4,29.85,West,263,1.0,1.0,93,0.00,,,0.53,Wunderground v.1.15,2013-06-06 23:10:00,
2013-06-06 19:15:00,74.6,72.4,29.85,SE,136,0.0,6.0,93,0.00,,,0.53,Wunderground v.1.15,2013-06-06 23:15:00,
2013-06-06 19:20:00,74.6,72.4,29.85,West,276,0.0,6.0,93,0.00,,,0.53,Wunderground v.1.15,2013-06-06 23:20:00,
2013-06-06 19:25:00,74.5,72.3,29.85,SSE,153,1.0,6.0,93,0.00,,,0.53,Wunderground v.1.15,2013-06-06 23:25:00,
2013-06-06 19:30:00,74.4,72.2,29.86,NNW,345,2.0,2.0,93,0.00,,,0.53,Wunderground v.1.15,2013-06-06 23:30:00,
2013-06-06 19:35:00,74.5,72.3,29.86,WNW,285,2.0,6.0,93,0.00,,,0.53,Wunderground v.1.15,2013-06-06 23:35:00,
2013-06-06 19:40:00,74.4,72.2,29.86,South,187,3.0,6.0,93,0.00,,,0.53,Wunderground v.1.15,2013-06-06 23:40:00,
2013-06-06 19:45:00,74.4,72.2,29.86,SW,224,3.0,6.0,93,0.00,,,0.53,Wunderground v.1.15,2013-06-06 23:45:00,
2013-06-06 19:50:00,74.5,72.3,29.86,SW,231,3.0,6.0,93,0.00,,,0.53,Wunderground v.1.15,2013-06-06 23:50:00,
2013-06-06 19:55:00,74.5,72.3,29.86,West,260,4.0,6.0,93,0.00,,,0.53,Wunderground v.1.15,2013-06-06 23:55:00,
2013-06-06 20:00:00,74.4,72.2,29.86,South,184,3.0,6.0,93,0.00,,,0.53,Wunderground v.1.15,2013-06-07 00:00:00,
2013-06-06 20:05:00,74.4,72.2,29.86,SSW,197,3.0,6.0,93,0.00,,,0.53,Wunderground v.1.15,2013-06-07 00:05:00,
2013-06-06 20:10:00,74.4,72.2,29.86,South,191,3.0,6.0,93,0.00,,,0.53,Wunderground v.1.15,2013-06-07 00:10:00,
2013-06-06 20:15:00,74.4,72.2,29.86,NE,44,3.0,6.0,93,0.00,,,0.53,Wunderground v.1.15,2013-06-07 00:15:00,
2013-06-06 20:20:00,74.4,72.2,29.87,SW,218,3.0,6.0,93,0.00,,,0.53,Wunderground v.1.15,2013-06-07 00:20:00,
2013-06-06 20:25:00,74.4,72.2,29.86,SSW,198,3.0,6.0,93,0.00,,,0.53,Wunderground v.1.15,2013-06-07 00:25:00,
2013-06-06 20:30:00,74.3,72.1,29.86,SW,222,4.0,4.0,93,0.00,,,0.53,Wunderground v.1.15,2013-06-07 00:30:00,
2013-06-06 20:35:00,74.3,72.1,29.86,SW,232,4.0,6.0,93,0.00,,,0.53,Wunderground v.1.15,2013-06-07 00:35:00,
2013-06-06 20:40:00,74.4,72.2,29.86,SW,231,4.0,4.0,93,0.00,,,0.53,Wunderground v.1.15,2013-06-07 00:40:00,
2013-06-06 20:45:00,74.4,72.2,29.86,South,184,4.0,6.0,93,0.00,,,0.53,Wunderground v.1.15,2013-06-07 00:45:00,
2013-06-06 20:50:00,74.3,72.1,29.86,SSW,205,3.0,6.0,93,0.00,,,0.53,Wunderground v.1.15,2013-06-07 00:50:00,
2013-06-06 20:55:00,74.3,72.1,29.86,South,191,3.0,6.0,93,0.00,,,0.53,Wunderground v.1.15,2013-06-07 00:55:00,
2013-06-06 21:00:00,74.3,72.1,29.86,SW,215,4.0,9.0,93,0.00,,,0.53,Wunderground v.1.15,2013-06-07 01:00:00,
2013-06-06 21:05:00,74.3,72.1,29.86,SSW,207,4.0,9.0,93,0.00,,,0.53,Wunderground v.1.15,2013-06-07 01:05:00,
2013-06-06 21:10:00,74.3,72.1,29.86,SW,224,5.0,9.0,93,0.00,,,0.53,Wunderground v.1.15,2013-06-07 01:10:00,
2013-06-06 21:15:00,74.3,72.1,29.86,SSW,193,5.0,9.0,93,0.00,,,0.53,Wunderground v.1.15,2013-06-07 01:15:00,
2013-06-06 21:20:00,74.3,72.1,29.86,South,184,5.0,9.0,93,0.00,,,0.53,Wunderground v.1.15,2013-06-07 01:20:00,
2013-06-06 21:25:00,74.2,72.0,29.86,South,169,5.0,9.0,93,0.00,,,0.53,Wunderground v.1.15,2013-06-07 01:25:00,
2013-06-06 21:30:00,74.2,72.0,29.87,SSE,163,5.0,9.0,93,0.00,,,0.53,Wunderground v.1.15,2013-06-07 01:30:00,
2013-06-06 21:35:00,74.3,72.1,29.87,South,179,5.0,9.0,93,0.00,,,0.53,Wunderground v.1.15,2013-06-07 01:35:00,
2013-06-06 21:40:00,74.3,72.1,29.87,East,94,6.0,6.0,93,0.00,,,0.53,Wunderground v.1.15,2013-06-07 01:40:00,
2013-06-06 21:45:00,74.3,72.1,29.87,South,176,6.0,7.0,93,0.00,,,0.53,Wunderground v.1.15,2013-06-07 01:45:00,
2013-06-06 21:50:00,74.3,72.1,29.87,South,172,6.0,6.0,93,0.00,,,0.53,Wunderground v.1.15,2013-06-07 01:50:00,
2013-06-06 21:55:00,74.3,72.1,29.87,SSE,150,6.0,9.0,93,0.00,,,0.53,Wunderground v.1.15,2013-06-07 01:55:00,
2013-06-06 22:00:00,74.3,72.1,29.87,SSW,195,6.0,8.0,93,0.00,,,0.53,Wunderground v.1.15,2013-06-07 02:00:00,
2013-06-06 22:05:00,74.4,72.2,29.87,SSW,203,5.0,8.0,93,0.00,,,0.53,Wunderground v.1.15,2013-06-07 02:05:00,
2013-06-06 22:10:00,74.4,72.2,29.87,SE,135,4.0,8.0,93,0.00,,,0.53,Wunderground v.1.15,2013-06-07 02:10:00,
2013-06-06 22:15:00,74.5,72.3,29.87,South,176,4.0,8.0,93,0.00,,,0.53,Wunderground v.1.15,2013-06-07 02:15:00,
2013-06-06 22:20:00,74.5,72.3,29.87,SE,124,4.0,4.0,93,0.00,,,0.53,Wunderground v.1.15,2013-06-07 02:20:00,
2013-06-06 22:25:00,74.5,72.3,29.87,ESE,120,4.0,7.0,93,0.00,,,0.53,Wunderground v.1.15,2013-06-07 02:25:00,
2013-06-06 22:30:00,74.5,72.3,29.87,SSE,148,4.0,8.0,93,0.00,,,0.53,Wunderground v.1.15,2013-06-07 02:30:00,
2013-06-06 22:35:00,74.6,72.4,29.87,South,177,4.0,8.0,93,0.00,,,0.53,Wunderground v.1.15,2013-06-07 02:35:00,
2013-06-06 22:40:00,74.6,72.4,29.87,SE,145,4.0,4.0,93,0.00,,,0.53,Wunderground v.1.15,2013-06-07 02:40:00,
2013-06-06 22:45:00,74.7,72.5,29.86,SE,134,4.0,8.0,93,0.00,,,0.53,Wunderground v.1.15,2013-06-07 02:45:00,
2013-06-06 22:50:00,74.6,72.4,29.86,East,88,4.0,4.0,93,0.00,,,0.53,Wunderground v.1.15,2013-06-07 02:50:00,
2013-06-06 22:55:00,74.7,72.5,29.86,SSE,153,4.0,5.0,93,0.00,,,0.53,Wunderground v.1.15,2013-06-07 02:55:00,
2013-06-06 23:00:00,74.7,72.5,29.86,South,177,4.0,4.0,93,0.00,,,0.53,Wunderground v.1.15,2013-06-07 03:00:00,
2013-06-06 23:05:00,74.7,72.5,29.86,SE,140,4.0,9.0,93,0.00,,,0.53,Wunderground v.1.15,2013-06-07 03:05:00,
2013-06-06 23:10:00,74.7,72.5,29.86,SSE,148,4.0,4.0,93,0.00,,,0.53,Wunderground v.1.15,2013-06-07 03:10:00,
2013-06-06 23:15:00,74.7,72.5,29.86,SE,141,5.0,7.0,93,0.00,,,0.53,Wunderground v.1.15,2013-06-07 03:15:00,
2013-06-06 23:20:00,74.7,72.5,29.85,SSE,148,5.0,9.0,93,0.00,,,0.53,Wunderground v.1.15,2013-06-07 03:20:00,
2013-06-06 23:25:00,74.7,72.5,29.85,SE,132,5.0,9.0,93,0.00,,,0.53,Wunderground v.1.15,2013-06-07 03:25:00,
2013-06-06 23:30:00,74.8,72.6,29.85,SE,131,5.0,9.0,93,0.00,,,0.53,Wunderground v.1.15,2013-06-07 03:30:00,
2013-06-06 23:35:00,74.7,72.5,29.85,ESE,117,4.0,9.0,93,0.00,,,0.53,Wunderground v.1.15,2013-06-07 03:35:00,
2013-06-06 23:40:00,74.8,72.6,29.85,SSE,148,4.0,9.0,93,0.00,,,0.53,Wunderground v.1.15,2013-06-07 03:40:00,
2013-06-06 23:50:00,74.8,72.6,29.85,SSE,150,4.0,9.0,93,0.00,,,0.53,Wunderground v.1.15,2013-06-07 03:50:00,
2013-06-06 23:55:00,74.8,72.6,29.85,SSE,148,4.0,9.0,93,0.00,,,0.53,Wunderground v.1.15,2013-06-07 03:55:00,